Regional Weather Roundup
Issued by NWS

Home | Current Version | Previous Version | Text Only | Print | Product List | Glossary Off
Versions: 1 2 3 4 5 6 7 8 9 10 11 12 13 14 15 16 17 18 19 20 21 22 23 24 25 26 27 28 29 30 31 32 33 34 35 36 37 38 39 40 41 42 43 44 45 46 47 48 49 50

429
ASUS44 KJAN 211110
RWRMS

MISSISSIPPI HOURLY WEATHER ROUNDUP
NATIONAL WEATHER SERVICE JACKSON MS
600 AM CDT SUN SEP 21 2014

NOTE: "FAIR: INDICATES FEW OR NO CLOUDS BELOW 12,000 FEET WITH NO
SIGNIFICANT WEATHER AND/OR OBSTRUCTIONS TO VISIBILITY.

MSZ001>002-007>008-010>013-018>021-025>028-034>036-211200-
NORTHWEST MISSISSIPPI

CITY           SKY/WX    TMP DP  RH WIND       PRES   REMARKS
CLARKSDALE     FAIR      68  68 100 CALM      30.02R
CLEVELAND      FAIR      68  67  97 CALM      30.00S
GREENWOOD      CLEAR     67  64  90 CALM      30.01S
GREENVILLE     CLEAR     68  66  93 CALM      30.01R
GRENADA        FAIR      64  64 100 CALM      30.02R
OLIVE BRANCH   CLEAR     66  66 100 SW7       30.01R
OXFORD         FAIR      68  64  88 SW3       30.03S
TUNICA         SUNNY     68  66  94 S3        30.01R FOG
$$

MSZ003>006-009-014>017-022>024-029>033-037>039-211200-
NORTHEAST MISSISSIPPI

CITY           SKY/WX    TMP DP  RH WIND       PRES   REMARKS
COLUMBUS AFB   CLEAR     63  63  99 CALM      30.02R
CORINTH          N/A     64  63  94 CALM      30.00S FOG
GOLDN TRIANGLE CLEAR     64  59  82 S5        30.03R
STARKVILLE     FAIR      61  61 100 CALM      30.02R FOG
TUPELO         CLEAR     66  64  93 CALM      30.01S
$$

MSZ040-058-211200-
CENTRAL MISSISSIPPI

CITY           SKY/WX    TMP DP  RH WIND       PRES   REMARKS
JACKSON INTL   CLEAR     64  63  96 CALM      30.03R
JACKSON HAWKNS CLEAR     68  65  90 CALM      30.03R
MERIDIAN KEY   CLEAR     61  60  97 S3        30.04R
MERIDIAN NAS   CLEAR     62  60  93 CALM      30.04R
RAYMOND        FAIR      64  59  82 CALM      30.03R HAZE
VICKSBURG      CLEAR     66  64  93 CALM      30.02R
$$

MSZ059>079-211200-
SOUTH MISSISSIPPI

CITY           SKY/WX    TMP DP  RH WIND       PRES   REMARKS
BROOKHAVEN     FAIR      63  63 100 CALM      30.05R FOG
COLUMBIA       FAIR      61  61 100 CALM      30.02R FOG
HATTIESBURG    PTCLDY    65  64  97 CALM      30.04R
MCCOMB         CLEAR     67  64  90 CALM      30.03R
NATCHEZ        CLEAR     68  64  88 CALM      30.03R
PINE BELT      CLEAR    N/A N/A N/A CALM      30.04R
$$

MSZ080>082-211200-
COASTAL MISSISSIPPI

CITY           SKY/WX    TMP DP  RH WIND       PRES   REMARKS
BILOXI         CLEAR     70  66  87 N6        30.00R
PASCAGOULA     CLEAR     68  65  90 NE5       29.99R
GULFPORT       CLEAR     68  65  90 N5        29.99R
$$



USA.gov is the U.S. government's official web portal to all federal, state and local government web resources and services.